| time (UTC) | temp C | wind direction | speed KPH | gust KPH | rain 1hr cm | rain 24hr cm | rain mn cm | humidity % | barometer mb |
| 20260902162004 | 22 | 230 | 1.6 | 3.2 | 0.00 | 0.05 | 0.05 | 63 | 1022.2 |
| 20260902161004 | 22 | 62 | 0.0 | 4.8 | 0.00 | 0.05 | 0.05 | 62 | 1022.4 |
| 20260902160006 | 24 | 20 | 1.6 | 8.0 | 0.00 | 0.05 | 0.05 | 54 | 1022.4 |
| 20260902155003 | 27 | 168 | 0.0 | 4.8 | 0.00 | 0.05 | 0.05 | 49 | 1022.4 |
| 20260902154004 | 26 | 105 | 3.2 | 4.8 | 0.00 | 0.05 | 0.05 | 59 | 1022.4 |
| 20260902153004 | 25 | 184 | 1.6 | 6.4 | 0.00 | 0.05 | 0.05 | 65 | 1022.4 |
| 20260902152004 | 21 | 160 | 0.0 | 6.4 | 0.00 | 0.05 | 0.05 | 71 | 1022.7 |
| 20260902151003 | 21 | 117 | 3.2 | 6.4 | 0.00 | 0.05 | 0.05 | 71 | 1022.5 |
| 20260902150004 | 21 | 87 | 3.2 | 6.4 | 0.00 | 0.05 | 0.05 | 70 | 1022.6 |
| 20260902144003 | 22 | 136 | 3.2 | 8.0 | 0.00 | 0.05 | 0.05 | 66 | 1022.6 |
| 20260902143004 | 23 | 153 | 3.2 | 6.4 | 0.00 | 0.05 | 0.05 | 62 | 1022.6 |
| 20260902142004 | 23 | 139 | 4.8 | 6.4 | 0.03 | 0.05 | 0.05 | 57 | 1022.7 |
| 20260902141003 | 23 | 100 | 0.0 | 4.8 | 0.03 | 0.05 | 0.05 | 70 | 1022.9 |
| 20260902140004 | 22 | 96 | 0.0 | 3.2 | 0.03 | 0.05 | 0.05 | 81 | 1022.8 |
| 20260902135004 | 20 | 181 | 0.0 | 1.6 | 0.03 | 0.05 | 0.05 | 85 | 1023.0 |
| 20260902133003 | 17 | 327 | 3.2 | 4.8 | 0.05 | 0.05 | 0.05 | 86 | 1023.2 |
| 20260902132007 | 18 | 203 | 3.2 | 4.8 | 0.03 | 0.03 | 0.03 | 85 | 1023.1 |
| 20260902131003 | 17 | 310 | 0.0 | 12.9 | 0.03 | 0.03 | 0.03 | 80 | 1023.1 |
| 20260902130005 | 18 | 310 | 4.8 | 14.5 | 0.03 | 0.03 | 0.03 | 74 | 1023.3 |
| 20260902125003 | 20 | 300 | 9.7 | 35.4 | 0.03 | 0.03 | 0.03 | 61 | 1022.8 |
| 20260902124004 | 28 | 309 | 11.3 | 19.3 | 0.00 | 0.00 | 0.00 | 29 | 1022.6 |
| 20260902122004 | 29 | 226 | 4.8 | 17.7 | 0.00 | 0.00 | 0.00 | 28 | 1022.4 |
| 20260902121003 | 28 | 168 | 8.0 | 20.9 | 0.00 | 0.00 | 0.00 | 31 | 1022.6 |
| 20260902120006 | 27 | 241 | 6.4 | 11.3 | 0.00 | 0.00 | 0.00 | 31 | 1022.8 |
| 20260902114004 | 25 | 318 | 6.4 | 16.1 | 0.00 | 0.00 | 0.00 | 35 | 1022.9 |
| 20260902113003 | 25 | 323 | 3.2 | 14.5 | 0.00 | 0.00 | 0.00 | 35 | 1023.1 |
| 20260902111003 | 26 | 292 | 3.2 | 12.9 | 0.00 | 0.00 | 0.00 | 33 | 1023.1 |
| 20260902110007 | 26 | 322 | 6.4 | 12.9 | 0.00 | 0.00 | 0.00 | 34 | 1023.3 |
| 20260902105003 | 25 | 293 | 4.8 | 17.7 | 0.00 | 0.00 | 0.00 | 36 | 1023.2 |
| 20260902104004 | 26 | 269 | 6.4 | 20.9 | 0.00 | 0.00 | 0.00 | 33 | 1023.3 |
| 20260902102004 | 26 | 239 | 3.2 | 24.1 | 0.00 | 0.00 | 0.00 | 36 | 1023.2 |
| 20260902101003 | 24 | 309 | 3.2 | 16.1 | 0.00 | 0.00 | 0.00 | 38 | 1023.4 |
| 20260902100004 | 25 | 334 | 6.4 | 12.9 | 0.00 | 0.00 | 0.00 | 37 | 1023.5 |
| 20260902095004 | 25 | 315 | 8.0 | 17.7 | 0.00 | 0.00 | 0.00 | 34 | 1023.6 |
| 20260902094003 | 25 | 276 | 3.2 | 20.9 | 0.00 | 0.00 | 0.00 | 37 | 1023.6 |
| 20260902093003 | 24 | 178 | 1.6 | 14.5 | 0.00 | 0.00 | 0.00 | 40 | 1023.8 |
| 20260902092007 | 24 | 249 | 4.8 | 16.1 | 0.00 | 0.00 | 0.00 | 41 | 1023.7 |
| 20260902090005 | 23 | 215 | 8.0 | 17.7 | 0.00 | 0.00 | 0.00 | 43 | 1023.8 |
| 20260902085003 | 23 | 206 | 4.8 | 14.5 | 0.00 | 0.00 | 0.00 | 46 | 1023.9 |
| 20260902084004 | 23 | 227 | 3.2 | 12.9 | 0.00 | 0.00 | 0.00 | 46 | 1023.9 |
| 20260902083004 | 23 | 209 | 3.2 | 14.5 | 0.00 | 0.00 | 0.00 | 48 | 1023.8 |
| 20260902082006 | 22 | 217 | 3.2 | 14.5 | 0.00 | 0.00 | 0.00 | 49 | 1024.1 |
| 20260902081004 | 22 | 288 | 4.8 | 8.0 | 0.00 | 0.00 | 0.00 | 50 | 1023.9 |
| 20260901205005 | 15 | 264 | 0.0 | 8.0 | 0.00 | 0.03 | 0.03 | 70 | 1022.7 |
| 20260901203005 | 16 | 302 | 0.0 | 4.8 | 0.00 | 0.03 | 0.03 | 66 | 1022.4 |
| 20260901202004 | 16 | 284 | 1.6 | 6.4 | 0.00 | 0.03 | 0.03 | 67 | 1022.4 |
| 20260901201004 | 16 | 331 | 0.0 | 3.2 | 0.00 | 0.03 | 0.03 | 68 | 1022.4 |
| 20260901200004 | 16 | 266 | 0.0 | 4.8 | 0.00 | 0.03 | 0.03 | 70 | 1022.4 |
| 20260901195005 | 15 | 245 | 1.6 | 6.4 | 0.00 | 0.03 | 0.03 | 70 | 1022.4 |
| 20260901194005 | 15 | 246 | 3.2 | 4.8 | 0.00 | 0.03 | 0.03 | 69 | 1022.4 |
| 20260901192005 | 16 | 236 | 0.0 | 3.2 | 0.00 | 0.03 | 0.03 | 65 | 1022.4 |
| 20260901191006 | 16 | 225 | 0.0 | 3.2 | 0.00 | 0.03 | 0.03 | 63 | 1022.3 |
| 20260901190005 | 16 | 229 | 0.0 | 3.2 | 0.00 | 0.03 | 0.03 | 62 | 1022.3 |
| 20260901184005 | 17 | 232 | 0.0 | 4.8 | 0.00 | 0.03 | 0.03 | 58 | 1022.0 |
| 20260901183005 | 17 | 243 | 1.6 | 3.2 | 0.00 | 0.03 | 0.03 | 57 | 1022.3 |
| 20260901182008 | 17 | 239 | 1.6 | 3.2 | 0.00 | 0.03 | 0.03 | 56 | 1022.3 |
| 20260901181004 | 18 | 238 | 0.0 | 4.8 | 0.00 | 0.03 | 0.03 | 54 | 1022.1 |
| 20260901180004 | 18 | 278 | 3.2 | 4.8 | 0.00 | 0.03 | 0.03 | 54 | 1022.0 |
| 20260901175004 | 19 | 268 | 1.6 | 4.8 | 0.00 | 0.03 | 0.03 | 53 | 1021.9 |
| 20260901173006 | 20 | 348 | 3.2 | 4.8 | 0.00 | 0.03 | 0.03 | 50 | 1021.5 |
| 20260901172008 | 20 | 306 | 3.2 | 9.7 | 0.00 | 0.03 | 0.03 | 49 | 1021.4 |
| 20260901171004 | 21 | 1 | 3.2 | 4.8 | 0.00 | 0.03 | 0.03 | 47 | 1021.4 |
| 20260901165004 | 22 | 275 | 3.2 | 16.1 | 0.00 | 0.03 | 0.03 | 39 | 1021.5 |
| 20260901164005 | 23 | 335 | 3.2 | 20.9 | 0.00 | 0.03 | 0.03 | 35 | 1021.2 |
| 20260901163004 | 24 | 289 | 6.4 | 17.7 | 0.00 | 0.05 | 0.03 | 34 | 1021.4 |